SCP
0 0 0 1 1 1 1 1 1 1 2 2 2 2 1 1 1 1 2 1 1 1 1 1 1 0 0 0 0 0 0 0 0 0 0 0 0 0 0 0 0 0 0
0 0 1 1 1 1 1 1 1 1 2 2 2 2 2 2 1 2 2 1 1 1 1 1 1 0 0 0 0 1 1 0 0 0 0 0 0 0 0 0 0 0 0
0 0 1 1 1 1 1 1 1 1 1 2 2 2 2 2 2 2 2 1 1 1 1 1 1 0 0 1 1 1 1 0 0 0 0 0 0 0 0 0 0 0 0
0 1 1 1 1 1 1 1 1 1 1 1 1 2 2 2 2 1 2 2 1 1 1 1 1 1 1 1 1 1 1 1 0 0 0 0 0 0 0 0 0 0 0
0 1 1 1 1 1 1 1 1 1 1 1 1 1 1 1 1 1 1 1 1 1 1 1 1 1 1 1 1 1 1 1 1 0 0 0 0 0 0 0 0 0 0
1 1 1 1 1 1 1 1 1 1 1 1 1 1 1 1 1 1 1 1 1 1 1 1 1 1 1 1 1 1 1 1 1 1 0 0 0 0 0 0 0 0 0
0 1 1 1 1 1 1 1 1 1 1 1 1 1 1 1 1 1 1 1 1 1 1 1 1 1 1 1 1 1 1 1 1 1 1 1 0 0 0 0 0 0 0
0 0 0 1 1 1 1 1 1 1 1 1 1 1 1 1 1 1 1 1 1 1 1 1 1 1 1 1 1 1 1 1 1 1 1 1 1 0 0 0 0 0 0
0 0 0 1 1 1 1 1 1 1 1 1 1 0 0 0 0 0 0 0 0 0 1 1 1 1 1 1 1 1 1 1 1 1 1 1 1 1 0 0 0 0 0
0 0 1 1 1 1 1 2 2 2 1 1 1 1 0 0 0 0 0 0 0 0 0 0 1 1 0 0 0 1 1 1 1 1 1 1 1 1 1 0 0 0 0
0 0 1 1 1 1 2 2 2 2 2 1 1 1 1 0 0 0 0 0 0 0 0 0 0 0 0 0 0 0 0 1 1 1 1 1 1 1 1 1 0 0 0
0 0 0 1 1 1 2 3 3 3 2 2 1 1 1 1 0 0 1 1 0 0 0 0 0 0 0 0 0 0 0 0 0 0 0 0 1 1 1 1 1 1 0
0 0 0 1 1 1 2 2 3 3 3 2 2 1 1 1 1 1 1 1 1 0 0 0 0 0 0 0 0 0 0 0 0 0 0 0 0 1 1 1 1 1 0
0 0 0 0 1 1 2 2 2 2 2 2 2 1 1 1 1 1 1 1 1 1 0 0 0 0 0 0 0 0 0 0 0 0 0 0 0 0 1 1 1 1 1
0 0 0 0 1 1 2 2 2 2 2 2 2 1 1 1 1 1 1 1 1 1 1 1 1 0 0 0 0 0 0 0 0 0 0 0 0 0 0 0 1 1 1
0 0 0 1 1 1 2 2 2 2 2 2 2 2 2 2 1 1 1 1 1 1 1 1 1 0 0 0 0 0 0 0 0 0 0 0 0 0 0 0 0 1 1
0 0 1 1 1 1 2 2 2 2 2 2 2 2 2 2 2 1 1 1 1 1 1 1 1 1 0 0 0 0 0 0 0 0 0 0 0 0 0 0 0 0 0
0 1 1 1 1 2 2 2 2 2 2 2 2 2 2 2 2 2 2 1 1 1 1 1 1 1 1 1 0 0 0 0 0 0 0 0 0 0 0 0 0 0 0
0 1 1 1 1 1 1 1 1 2 2 2 2 2 2 2 2 2 2 2 1 1 1 1 1 1 1 1 1 1 0 0 0 0 0 0 0 0 0 0 1 1 1
0 0 0 1 1 1 1 1 1 1 1 1 1 1 1 2 2 2 2 2 2 2 1 1 1 1 1 1 1 1 0 0 0 0 0 0 0 0 0 0 1 1 1
0 0 0 0 0 0 0 0 0 0 1 1 1 1 1 1 1 1 2 2 1 1 1 1 1 1 1 1 0 0 0 1 0 1 1 0 0 0 0 0 0 0 1
0 0 0 0 0 0 0 0 0 0 0 0 0 0 0 0 1 1 1 1 1 1 1 1 1 1 1 1 0 0 0 0 0 1 0 0 0 0 0 0 0 0 0
0 0 0 0 0 0 0 0 0 0 0 0 0 0 0 0 0 0 0 1 1 1 1 1 1 1 1 1 0 0 0 0 0 0 0 0 0 0 0 0 0 0 0
0 0 0 0 0 0 0 0 0 0 0 0 0 0 0 0 0 0 0 0 1 1 1 1 1 1 1 1 0 0 0 0 0 0 0 0 0 0 0 0 0 0 0
0 0 0 0 0 0 0 0 0 0 0 0 0 0 0 0 0 0 0 0 0 0 1 1 1 1 1 0 0 0 0 0 0 0 0 0 0 0 0 0 0 0 0
0 0 0 0 0 0 0 0 0 0 0 0 0 0 0 0 0 0 0 0 0 0 0 0 0 0 0 0 0 0 0 0 0 0 0 0 0 0 0 0 0 0 0
Wind_Speed
8 6 6 5 5 5 6 6 8 10 9 7 7 7 7 6 6 7 9 10 9 9 7 6 9 9 8 9 9 8 9 7 7 6 5 4 3 4 4 4 4 7 6
9 9 7 5 3 2 2 4 6 8 9 7 6 5 6 6 7 6 8 10 10 8 6 7 6 8 8 10 10 10 8 7 7 7 6 5 4 3 3 3 2 5 5
11 10 8 5 5 4 4 4 5 7 8 8 5 4 4 4 5 6 7 9 10 9 7 8 8 9 9 9 11 12 12 9 9 8 6 4 4 5 4 4 3 3 2
11 10 8 6 6 6 5 6 6 6 7 8 8 8 6 6 6 5 6 9 11 12 11 12 11 11 10 10 11 13 11 11 10 8 6 4 3 4 5 5 5 4 3
11 10 7 6 6 6 5 6 6 6 6 6 6 6 6 4 3 4 6 7 9 11 13 14 13 13 10 11 12 12 13 11 10 9 8 5 3 6 4 6 7 6 5
11 9 7 7 6 6 6 6 6 6 6 5 5 6 5 4 5 5 5 4 4 6 11 12 12 12 9 10 9 10 13 11 12 10 9 7 6 6 5 4 6 6 6
11 10 9 8 8 7 7 6 7 7 7 7 6 6 5 5 6 5 5 5 4 4 7 9 10 9 8 8 7 7 9 11 12 12 9 8 8 5 5 4 4 5 6
10 9 9 8 8 8 8 7 7 7 6 6 6 5 5 3 3 4 4 4 4 4 6 7 8 9 9 8 8 6 6 8 10 12 11 6 7 6 6 5 4 5 5
10 9 8 8 9 10 10 9 8 7 7 6 5 5 5 4 4 4 4 3 3 4 5 6 6 7 8 9 9 6 6 6 7 8 10 8 7 7 7 7 6 6 5
8 8 8 9 9 10 10 10 9 8 7 6 5 3 4 4 3 4 4 4 5 5 6 7 7 7 7 9 9 8 7 6 4 4 7 8 6 7 7 8 8 7 7
4 5 7 9 10 10 10 11 10 9 8 8 7 6 5 5 5 4 4 5 5 6 7 7 8 8 8 8 8 7 7 6 3 4 5 7 7 6 7 7 8 8 7
4 4 5 7 10 11 11 12 12 11 10 9 8 7 5 5 5 5 5 6 6 7 7 8 8 9 9 9 8 8 7 6 4 4 6 8 6 9 8 7 9 8 9
6 5 4 6 8 10 11 12 12 11 11 10 9 8 8 7 6 5 5 6 7 7 8 8 9 9 9 9 9 8 8 8 8 7 8 10 10 10 9 10 10 8 8
10 8 6 6 7 9 10 11 11 11 11 10 10 9 8 7 7 6 6 7 8 8 8 8 8 9 9 9 10 10 11 11 11 11 11 12 12 12 11 10 11 9 9
12 10 8 5 5 8 9 9 10 10 10 10 10 9 8 7 7 6 7 8 8 8 8 8 8 8 7 8 9 9 10 11 11 12 12 12 11 11 9 7 9 10 8
10 9 7 4 4 7 8 8 8 8 9 9 8 7 7 7 7 7 8 8 9 9 9 9 9 8 7 6 6 8 9 10 11 11 12 11 11 13 13 13 11 9 10
7 5 3 1 3 5 6 6 6 6 7 7 6 7 7 8 8 8 8 9 9 9 9 10 9 10 9 7 8 9 8 9 9 10 10 8 8 10 10 13 15 13 13
4 4 5 6 7 7 7 6 5 3 3 3 4 5 6 7 7 8 8 9 8 9 9 9 10 9 8 9 8 8 10 10 9 9 10 9 9 9 9 9 10 11 12
7 8 9 9 10 9 8 8 7 6 4 3 3 2 3 5 7 8 8 8 7 8 8 8 9 9 8 9 8 8 8 8 9 8 7 8 8 7 7 8 7 7 7
9 9 9 11 11 10 9 10 9 8 8 6 5 4 2 2 5 6 7 6 7 7 6 7 7 8 7 7 7 9 7 7 6 5 5 5 5 5 8 8 6 6 5
8 8 9 10 9 9 9 10 9 9 7 7 7 6 5 3 1 3 4 5 6 6 7 7 6 5 4 5 5 8 7 5 4 4 4 4 5 4 5 6 3 1 2
6 6 7 8 8 8 8 9 8 7 6 6 7 7 7 5 4 2 1 3 5 6 7 7 6 5 4 4 5 7 8 6 4 3 3 4 6 5 5 3 2 2 2
5 5 6 7 6 6 6 7 6 5 5 6 6 6 6 5 5 3 3 3 4 4 5 6 6 6 5 5 6 7 7 6 3 2 6 6 7 7 6 4 4 4 3
4 3 4 4 4 4 4 5 4 4 5 6 5 5 6 6 6 4 3 3 3 4 4 5 5 4 4 4 4 5 6 7 5 5 8 8 6 4 4 6 6 4 3
4 3 2 1 2 3 4 4 3 3 4 4 4 5 6 6 6 6 5 4 5 4 2 2 2 2 3 1 1 3 4 5 5 7 6 6 6 6 5 4 4 4 4
5 4 4 3 2 3 4 3 2 2 4 4 4 4 4 4 4 5 6 10 9 9 8 8 5 4 4 2 1 1 2 5 6 4 4 4 4 4 4 4 5 5 4
Wind_Direction
206 195 206 214 227 232 241 230 222 212 203 196 199 196 203 205 207 201 199 192 202 213 205 214 213 201 194 193 191 181 173 174 171 158 150 139 128 99 106 89 91 87 80
199 194 191 178 179 175 188 199 197 197 195 195 201 203 197 207 212 209 200 191 186 189 200 215 229 218 211 205 198 186 183 177 189 185 171 160 157 169 143 132 103 102 97
204 188 180 163 148 143 152 165 175 182 189 184 181 181 176 191 197 203 198 193 183 176 185 209 226 235 223 211 202 192 189 185 198 205 200 192 173 156 171 169 172 133 120
197 180 172 161 144 129 137 147 162 174 179 183 196 204 207 212 217 206 196 195 192 191 195 207 218 228 230 221 207 202 196 190 194 208 235 253 148 180 160 188 194 184 182
186 175 166 153 133 123 123 130 145 157 170 193 206 227 234 233 221 211 205 200 195 202 205 210 213 220 222 223 213 206 200 196 198 199 201 203 196 238 186 168 181 191 200
177 168 158 158 145 132 130 135 141 139 155 178 197 212 208 209 204 209 212 205 199 208 212 211 212 212 210 214 210 205 205 204 204 206 203 201 205 220 214 185 177 185 180
173 173 175 177 168 160 155 155 153 151 162 177 186 195 198 218 220 212 210 209 206 208 217 211 208 203 196 192 184 192 203 211 214 214 212 212 223 221 226 226 191 180 166
183 185 186 185 182 177 175 175 170 165 168 188 187 195 188 211 225 220 215 206 211 210 210 206 202 194 184 175 168 168 191 210 219 222 222 218 226 233 237 241 232 216 191
197 200 197 195 191 188 187 185 181 177 180 189 186 196 187 195 201 209 208 198 204 198 194 187 180 176 174 169 160 159 175 199 220 224 224 221 221 226 237 243 241 240 237
219 214 208 208 203 198 192 187 187 183 182 190 193 194 195 183 189 196 196 196 196 191 183 177 168 164 166 162 155 152 161 175 206 232 237 230 229 226 225 230 237 241 244
266 250 227 218 211 203 194 189 186 187 185 190 192 195 191 187 188 192 190 192 190 186 186 179 173 163 159 156 148 144 147 156 184 231 246 245 235 226 221 222 228 235 238
338 307 267 236 217 209 201 195 190 184 186 189 191 200 190 190 201 193 191 190 189 192 196 185 179 171 165 161 156 153 152 157 185 234 257 257 243 235 230 223 226 228 233
318 306 276 250 227 213 204 195 191 185 180 184 190 196 197 200 209 204 193 196 192 194 200 197 189 183 178 176 176 174 176 187 202 217 237 251 244 235 230 226 230 229 228
302 301 290 262 232 214 204 195 188 186 181 185 192 203 206 204 210 208 202 204 200 198 200 197 196 191 187 190 192 194 199 204 209 216 226 237 240 241 238 231 232 226 220
287 291 292 278 226 206 199 191 187 188 187 192 201 207 210 208 211 206 208 209 208 208 203 196 198 197 199 205 205 206 211 216 219 222 227 233 237 248 253 248 238 222 216
284 294 297 279 218 195 186 180 185 188 194 204 214 212 217 211 214 212 211 209 207 212 206 207 206 203 207 189 205 233 230 229 231 233 233 232 228 234 235 243 250 242 225
300 314 330 44 155 158 158 164 176 180 201 212 218 215 216 216 217 213 211 209 208 208 211 215 213 215 207 179 202 222 245 243 245 246 242 232 227 222 225 221 223 231 240
5 49 76 89 100 106 112 116 129 157 197 232 239 230 224 221 217 214 212 211 209 203 207 212 214 219 210 190 210 214 240 246 244 243 242 236 226 214 217 215 216 221 219
61 73 80 87 85 85 92 97 91 81 64 27 343 295 245 230 219 216 215 211 208 205 205 208 211 213 205 188 206 219 239 244 244 241 237 234 225 193 207 219 221 230 230
68 78 81 81 79 79 83 84 78 68 54 37 25 18 358 252 231 226 219 206 206 208 201 204 210 214 213 174 199 229 241 239 233 229 224 218 240 184 200 223 221 228 224
62 74 80 77 77 80 81 77 69 58 45 37 37 37 33 18 311 246 218 200 199 200 195 193 192 199 201 168 203 235 253 246 233 216 212 183 172 184 198 245 239 213 181
66 74 84 83 79 78 80 77 67 55 47 44 45 44 37 32 34 44 133 179 183 184 180 176 171 177 184 196 197 225 245 283 247 222 191 144 150 169 186 212 110 111 160
79 83 94 93 87 73 62 65 62 43 39 44 45 44 48 48 45 60 98 126 153 161 167 172 172 174 177 179 200 220 220 232 252 107 86 116 146 162 175 164 160 180 196
110 118 127 113 89 66 46 37 39 24 24 36 33 29 33 46 54 56 75 110 136 152 162 169 173 175 181 191 199 203 187 182 179 144 127 128 139 160 133 159 183 197 189
155 171 180 133 64 24 14 16 13 359 9 30 36 39 48 50 54 56 37 31 53 37 43 100 140 169 179 112 325 262 200 187 172 159 164 167 169 175 179 186 191 193 186
173 178 195 232 275 333 1 32 47 359 360 29 37 42 57 68 74 88 82 50 54 58 53 43 32 67 47 15 263 207 110 116 145 186 182 181 189 194 193 192 191 199 205